Location: Ariel
(45.9570°N, 122.5700°W)
Time: 06:30:45
(UTC-07:00)

Transit 2A Rocket - Pass Details

Date: 20 July 2019
Orbit: 590 x 913 km, 66.7° (Epoch: 22 August)

Event Time Altitude Azimuth Distance (km) Brightness Sun altitude
Exits shadow 03:58:36 13° 185° (S) 2,331 7.0 -13.9°
Maximum altitude 04:03:37 47° 115° (ESE) 1,147 6.0 -13.4°
Drops below altitude 10° 04:09:04 10° 44° (NE) 2,452 9.1 -12.8°
Sets 04:11:30 0° 38° (NE) 3,343 10.4 -12.5°
